Location: Bidwell Hollow
(37.7387°N, 90.1707°W)
Time: 19:12:31
(UTC+00:00)

Envisat - Pass Details

Date: 05 October 2024
Orbit: 761 x 763 km, 98.4° (Epoch: 08 November)

Event Time Altitude Azimuth Distance (km) Brightness Sun altitude
Rises 08:13:03 0° 25° (NNE) 3,232 6.9 -43.7°
Reaches altitude 10° 08:15:41 10° 37° (NE) 2,301 6.0 -43.2°
Enters shadow 08:16:10 12° 40° (NE) 2,143 5.9 -43.2°
